Ely, MN

6:27 AM CDT on May 27, 2017 (GMT -0500)
Ely Municipal

Weather History for KELO - September, 2013

Change the Weather History Date:

Thursday, September 19, 2013

  Actual Average Record
Temperature  
Mean Temperature 64 °F -  
Max Temperature 69 °F 62 °F 82 °F (2004)
Min Temperature 60 °F 41 °F 26 °F (1996)
Growing Degree Days 14 (Base 50)    
Moisture  
Dew Point 63 °F    
Average Humidity 94    
Maximum Humidity 100    
Minimum Humidity 83    
Precipitation  
Precipitation 0.02 in - - ()
Sea Level Pressure  
Sea Level Pressure 29.70 in    
Wind  
Wind Speed 4 mph (SSE)    
Max Wind Speed 8 mph    
Max Gust Speed 21 mph    
Visibility 5 miles    
Events Rain , Thunderstorm    
Averages and records for this station are not official NWS values.
T = Trace of Precipitation, MM = Missing Value Source: NWS Daily Summary

Daily Weather History Graph

Daily Weather History Graph

Search for Another Location

Airport or City:

Trip Planner

Search our weather history database for the weather conditions in past years. The results will help you decide how hot, cold, wet, or windy it might be!

Date:

Astronomy

Sep. 19, 2013 Rise Set
Actual Time 6:50 AM CDT 7:10 PM CDT
Civil Twilight 6:19 AM CDT 7:41 PM CDT
Nautical Twilight 5:42 AM CDT 8:18 PM CDT
Astronomical Twilight 5:04 AM CDT 8:55 PM CDT
Moon 7:03 PM CDT (9/19) 7:03 AM CDT (9/19)
Length of Visible Light 13h 22m
Length of Day
12h 20m
Full, 100% of the Moon is Illuminated
Sep 19
Full
Sep 26
Last Quarter
Oct 4
New
Oct 11
First Quarter
Oct 18
Full

Hourly Weather History & Observations

Time (CDT) Temp. Dew Point Humidity Pressure Visibility Wind Dir Wind Speed Gust Speed Precip Events Conditions
12:13 AM 62.6 °F 60.8 °F 94% 29.75 in 7.0 mi SE 6.9 mph - N/A   Overcast
12:33 AM 62.6 °F 60.8 °F 94% 29.76 in 7.0 mi SE 4.6 mph - N/A   Overcast
12:52 AM 62.6 °F 60.8 °F 94% 29.76 in 10.0 mi SSE 3.5 mph - N/A   Overcast
1:13 AM 62.6 °F 60.8 °F 94% 29.76 in 10.0 mi SE 5.8 mph - N/A   Overcast
1:33 AM 62.6 °F 60.8 °F 94% 29.76 in 7.0 mi SE 4.6 mph - N/A   Overcast
1:52 AM 62.6 °F 60.8 °F 94% 29.76 in 7.0 mi SE 4.6 mph - N/A   Overcast
2:13 AM 62.6 °F 60.8 °F 94% 29.76 in 4.0 mi SE 4.6 mph - N/A   Overcast
2:33 AM 62.6 °F 60.8 °F 94% 29.75 in 4.0 mi SE 4.6 mph - N/A   Overcast
2:52 AM 64.4 °F 62.6 °F 94% 29.74 in 5.0 mi SSE 5.8 mph - N/A   Overcast
3:13 AM 64.4 °F 62.6 °F 94% 29.73 in 5.0 mi SSE 6.9 mph - N/A   Overcast
3:33 AM 64.4 °F 62.6 °F 94% 29.73 in 5.0 mi SSE 5.8 mph - N/A   Overcast
3:52 AM 64.4 °F 62.6 °F 94% 29.73 in 5.0 mi South 4.6 mph - N/A   Overcast
4:13 AM 66.2 °F 62.6 °F 88% 29.72 in 5.0 mi South 4.6 mph - N/A   Overcast
4:33 AM 66.2 °F 64.4 °F 94% 29.72 in 5.0 mi SSW 3.5 mph - N/A   Overcast
4:52 AM 66.2 °F 64.4 °F 94% 29.72 in 4.0 mi Calm Calm - N/A   Overcast
5:13 AM 66.2 °F 64.4 °F 94% 29.73 in 4.0 mi Calm Calm - N/A   Overcast
5:33 AM 66.2 °F 64.4 °F 94% 29.72 in 3.0 mi Calm Calm - N/A   Overcast
5:52 AM 64.4 °F 62.6 °F 94% 29.73 in 2.0 mi Calm Calm - N/A   Drizzle
6:13 AM 64.4 °F 62.6 °F 94% 29.72 in 2.5 mi East 4.6 mph - N/A   Drizzle
6:33 AM 64.4 °F 62.6 °F 94% 29.73 in 2.5 mi East 4.6 mph - N/A   Light Drizzle
6:52 AM 64.4 °F 62.6 °F 94% 29.72 in 4.0 mi ESE 8.1 mph - N/A   Overcast
7:13 AM 64.4 °F 62.6 °F 94% 29.71 in 4.0 mi East 6.9 mph - N/A   Overcast
7:33 AM 64.4 °F 62.6 °F 94% 29.71 in 2.0 mi ESE 5.8 mph - N/A   Overcast
7:52 AM 64.4 °F 62.6 °F 94% 29.69 in 2.5 mi East 4.6 mph - N/A   Overcast
8:13 AM 64.4 °F 62.6 °F 94% 29.68 in 3.0 mi ESE 6.9 mph - N/A   Overcast
8:33 AM 64.4 °F 62.6 °F 94% 29.70 in 4.0 mi Calm Calm - N/A   Overcast
8:52 AM 64.4 °F 62.6 °F 94% 29.71 in 4.0 mi Calm Calm - N/A   Overcast
9:13 AM 64.4 °F 62.6 °F 94% 29.72 in 4.0 mi Calm Calm - N/A   Overcast
9:32 AM 64.4 °F 62.6 °F 94% 29.71 in 4.0 mi Calm Calm - N/A   Overcast
9:53 AM 64.4 °F 64.4 °F 100% 29.71 in 1.8 mi Calm Calm - N/A Thunderstorm Overcast
10:13 AM 64.4 °F 62.6 °F 94% 29.71 in 1.5 mi SSE 5.8 mph - N/A Rain , Thunderstorm Light Thunderstorms and Rain
10:32 AM 64.4 °F 64.4 °F 100% 29.71 in 2.5 mi Calm Calm - N/A Thunderstorm Overcast
10:53 AM 66.2 °F 64.4 °F 94% 29.70 in 4.0 mi Calm Calm - N/A   Scattered Clouds
11:11 AM 66.2 °F 64.4 °F 94% 29.68 in 7.0 mi Calm Calm - N/A Thunderstorm Clear
11:33 AM 66.2 °F 64.4 °F 94% 29.69 in 10.0 mi SE 3.5 mph - N/A Thunderstorm Thunderstorm
11:53 AM 69.8 °F 64.4 °F 83% 29.70 in 10.0 mi Calm Calm - N/A Thunderstorm Overcast
12:12 PM 69.8 °F 64.4 °F 83% 29.70 in 10.0 mi SSE 3.5 mph - N/A   Overcast
12:33 PM 69.8 °F 64.4 °F 83% 29.70 in 10.0 mi SSE 5.8 mph - N/A   Overcast
12:53 PM 69.8 °F 64.4 °F 83% 29.69 in 10.0 mi SSE 4.6 mph - N/A   Overcast
1:12 PM 69.8 °F 64.4 °F 83% 29.68 in 10.0 mi SSE 5.8 mph - N/A   Overcast
1:33 PM 69.8 °F 64.4 °F 83% 29.68 in 10.0 mi SW 3.5 mph - N/A   Overcast
1:53 PM 68.0 °F 64.4 °F 88% 29.67 in 10.0 mi Calm Calm - N/A Rain , Thunderstorm Light Thunderstorms and Rain
2:12 PM 68.0 °F 64.4 °F 88% 29.68 in 7.0 mi SW 4.6 mph - N/A Thunderstorm Overcast
2:33 PM 66.2 °F 64.4 °F 94% 29.68 in 3.0 mi SSW 6.9 mph - N/A Rain , Thunderstorm Light Thunderstorms and Rain
2:52 PM 64.4 °F 64.4 °F 100% 29.68 in 1.0 mi South 6.9 mph - N/A Rain Light Rain
3:12 PM 64.4 °F 64.4 °F 100% 29.67 in 2.0 mi SW 4.6 mph - N/A Rain Rain
3:33 PM 64.4 °F 62.6 °F 94% 29.64 in 3.0 mi Calm Calm - N/A Rain , Thunderstorm Rain
3:52 PM 64.4 °F 64.4 °F 100% 29.64 in 2.5 mi Calm Calm - N/A Rain Rain
4:12 PM 64.4 °F 64.4 °F 100% 29.65 in 2.0 mi Calm Calm - N/A Rain Light Rain
4:33 PM 66.2 °F 64.4 °F 94% 29.64 in 3.0 mi Calm Calm - N/A Rain Light Rain
4:52 PM 66.2 °F 64.4 °F 94% 29.68 in 4.0 mi South 3.5 mph - N/A Rain Light Rain
5:12 PM 66.2 °F 64.4 °F 94% 29.68 in 5.0 mi Calm Calm - N/A Rain Light Rain
5:33 PM 66.2 °F 64.4 °F 94% 29.68 in 5.0 mi Calm Calm - 0.01 in   Overcast
5:52 PM 66.2 °F 64.4 °F 94% 29.68 in 4.0 mi SE 3.5 mph - 0.01 in   Overcast
6:13 PM 66.2 °F 64.4 °F 94% 29.68 in 5.0 mi SSE 3.5 mph - N/A   Overcast
6:33 PM 66.2 °F 64.4 °F 94% 29.68 in 4.0 mi Calm Calm - N/A   Drizzle
6:52 PM 64.4 °F 64.4 °F 100% 29.68 in 3.0 mi Calm Calm - N/A   Overcast
7:13 PM 64.4 °F 64.4 °F 100% 29.67 in 4.0 mi Calm Calm - N/A   Overcast
7:33 PM 64.4 °F 64.4 °F 100% 29.69 in 5.0 mi SSW 4.6 mph - N/A   Overcast
7:52 PM 64.4 °F 64.4 °F 100% 29.68 in 5.0 mi Calm Calm - N/A   Mostly Cloudy
8:13 PM 64.4 °F 64.4 °F 100% 29.69 in 4.0 mi SW 4.6 mph - N/A   Overcast
8:33 PM 64.4 °F 64.4 °F 100% 29.68 in 3.0 mi Calm Calm - 0.01 in Rain Light Rain
8:52 PM 64.4 °F 64.4 °F 100% 29.68 in 3.0 mi WSW 3.5 mph - 0.01 in Rain Light Rain
9:13 PM 64.4 °F 64.4 °F 100% 29.68 in 3.0 mi Calm Calm - N/A Rain Light Rain
9:33 PM 62.6 °F 60.8 °F 94% 29.69 in 2.5 mi WNW 5.8 mph 20.7 mph N/A Rain Heavy Rain
9:52 PM 60.8 °F 60.8 °F 100% 29.69 in 7.0 mi Calm Calm - N/A Rain Light Rain
10:13 PM 60.8 °F 59.0 °F 94% 29.69 in 10.0 mi Calm Calm - N/A   Scattered Clouds
10:33 PM 60.8 °F 60.8 °F 100% 29.68 in 7.0 mi Calm Calm - N/A   Scattered Clouds
10:52 PM 60.8 °F 60.8 °F 100% 29.68 in 7.0 mi Calm Calm - N/A   Scattered Clouds
11:13 PM 62.6 °F 60.8 °F 94% 29.68 in 7.0 mi West 3.5 mph - N/A   Mostly Cloudy
11:32 PM 62.6 °F 60.8 °F 94% 29.69 in 7.0 mi West 4.6 mph - N/A   Overcast
11:52 PM 62.6 °F 60.8 °F 94% 29.68 in 10.0 mi WNW 8.1 mph - N/A   Overcast